This demonstration page uses our WeatherBlox Daily Observations layout. Learn more.

Left ArrowRight Arrow

Hourly Observations for November 5, 2020

Temp ( °F °C ) Dew Point ( °F °C ) Humidity (%) Winds ( mph kmh ) Pressure ( in mb ) Visibility ( mi km ) Precip ( " mm )
12:15 am 00:15 Clear 51 10.6 31 -0.4 47 47 NNW 8 13 30.11 1020 10 16 N/A
12:35 am 00:35 Clear 50 9.8 32 undefined 51 51 NNW 9 15 30.12 1020 10 16 N/A
12:55 am 00:55 Clear 50 10.1 32 0.1 50 50 NNW 8 13 30.13 1020 10 16 N/A
1:15 am 01:15 Clear 48 8.7 32 undefined 55 55 NW 8 13 30.13 1020 10 16 N/A
1:35 am 01:35 Clear 49 9.6 32 undefined 52 52 NNW 9 15 30.14 1021 10 16 N/A
1:55 am 01:55 Clear 50 9.8 32 -0.1 50 50 NW 10 17 30.14 1021 10 16 N/A
2:15 am 02:15 Clear 48 9 31 -0.5 52 52 NW 10 17 30.15 1021 10 16 N/A
2:35 am 02:35 Clear 50 9.9 31 -0.5 49 49 NNW 12 19 30.15 1021 10 16 N/A
2:55 am 02:55 Clear 48 8.8 31 -0.8 51 51 N N/A 30.16 1021 10 16 N/A
3:15 am 03:15 Clear 46 7.8 30 -1.2 53 53 NW 6 9 30.18 1022 10 16 N/A
3:35 am 03:35 Clear 45 7.2 29 -1.4 55 55 NNW 9 15 30.19 1022 10 16 N/A
3:55 am 03:55 Clear 47 8.3 29 -1.6 50 50 NNW 9 15 30.19 1022 10 16 N/A
4:15 am 04:15 Clear 46 8 29 -1.5 51 51 NW 6 9 30.20 1023 10 16 N/A
4:35 am 04:35 Clear 45 7 29 -1.5 55 55 WNW 7 11 30.22 1023 10 16 N/A
4:55 am 04:55 Clear 44 6.6 29 -1.5 57 57 NW 7 11 30.22 1023 10 16 N/A
5:15 am 05:15 Clear 44 6.7 29 -1.5 56 56 NW 7 11 30.22 1023 10 16 N/A
5:35 am 05:35 Clear 43 6.1 29 -1.6 58 58 NW 6 9 30.23 1024 10 16 N/A
5:55 am 05:55 Clear 42 5.6 29 -1.6 60 60 NW 6 9 30.24 1024 10 16 N/A
6:15 am 06:15 Clear 42 5.8 29 -1.5 60 60 NW 6 9 30.26 1025 10 16 N/A
6:35 am 06:35 Clear 43 5.9 30 -1.1 61 61 NW 6 9 30.26 1025 10 16 N/A
6:55 am 06:55 Clear 42 5.3 30 -1.1 64 64 NW 7 11 30.27 1025 10 16 N/A
7:15 am 07:15 Sunny 41 5.1 30 -1 65 65 NW 6 9 30.27 1025 10 16 N/A
7:35 am 07:35 Sunny 43 5.9 31 -0.7 63 63 NW 6 9 30.27 1025 10 16 N/A
7:55 am 07:55 Sunny 44 6.9 32 -0.1 61 61 WNW 5 7 30.27 1025 10 16 N/A
8:15 am 08:15 Sunny 46 7.6 33 0.5 61 61 NW 6 9 30.26 1025 10 16 N/A
8:35 am 08:35 Sunny 49 9.7 34 1.1 55 55 NW 6 9 30.26 1025 10 16 N/A
8:55 am 08:55 Sunny 53 11.5 35 1.4 50 50 NW 5 7 30.24 1024 10 16 N/A
9:15 am 09:15 Sunny 56 13.1 35 1.5 46 46 NW 6 9 30.23 1024 10 16 N/A
9:35 am 09:35 Sunny 58 14.6 35 1.5 41 41 NW 6 9 30.21 1023 10 16 N/A
9:55 am 09:55 Sunny 61 16.1 35 1.5 37 37 NNW 3 6 30.19 1022 10 16 N/A
10:15 am 10:15 Sunny 64 17.8 35 1.8 34 34 N 6 9 30.18 1022 10 16 N/A
10:35 am 10:35 Sunny 66 18.9 35 1.9 32 32 N 6 9 30.18 1022 10 16 N/A
10:55 am 10:55 Sunny 68 20.1 36 2.1 30 30 NNE 6 9 30.17 1022 10 16 N/A
11:15 am 11:15 Sunny 69 20.7 35 1.8 29 29 N 6 9 30.16 1021 10 16 N/A
11:35 am 11:35 Sunny 71 21.7 35 1.9 27 27 N 6 9 30.14 1021 10 16 N/A
11:55 am 11:55 Sunny 72 22 35 1.7 26 26 NNE 7 11 30.14 1021 10 16 N/A
12:15 pm 12:15 Sunny 73 22.8 36 2 26 26 NE 5 7 30.12 1020 10 16 N/A
12:35 pm 12:35 Sunny 74 23.1 35 1.9 25 25 N 3 6 30.12 1020 10 16 N/A
12:55 pm 12:55 Sunny 74 23.4 36 2 25 25 NNE 5 7 30.12 1020 10 16 N/A
1:15 pm 13:15 Sunny 74 23.6 35 1.5 23 23 N N/A 30.11 1020 10 16 N/A
1:35 pm 13:35 Sunny 75 24 35 1.4 23 23 N 6 9 30.08 1019 10 16 N/A
1:55 pm 13:55 Sunny 76 24.3 35 1.5 22 22 NE 3 6 30.08 1019 10 16 N/A
2:15 pm 14:15 Sunny 76 24.4 34 1.3 22 22 NW 3 6 30.07 1018 10 16 N/A
2:35 pm 14:35 Sunny 76 24.4 34 1.2 22 22 WSW 3 6 30.07 1018 10 16 N/A
2:55 pm 14:55 Sunny 76 24.4 34 1.1 22 22 N N/A 30.05 1018 10 16 N/A
3:15 pm 15:15 Sunny 76 24.5 34 1.1 22 22 N N/A 30.05 1018 10 16 N/A
3:35 pm 15:35 Sunny 76 24.5 34 1 21 21 N N/A 30.05 1018 10 16 N/A
3:55 pm 15:55 Sunny 76 24.3 34 1.1 22 22 S 3 6 30.03 1017 10 16 N/A
4:15 pm 16:15 Sunny 75 24.1 34 1.1 22 22 N N/A 30.04 1017 10 16 N/A
4:35 pm 16:35 Sunny 74 23.6 34 1.1 23 23 N N/A 30.04 1017 10 16 N/A
4:55 pm 16:55 Sunny 73 22.9 34 1.1 24 24 SSW 3 6 30.03 1017 10 16 N/A
5:15 pm 17:15 Sunny 70 21.2 34 1 26 26 N N/A 30.05 1018 10 16 N/A
5:35 pm 17:35 Clear 67 19.4 33 0.7 29 29 SSE 5 7 30.06 1018 10 16 N/A
5:55 pm 17:55 Clear 66 18.8 33 0.6 30 30 S 6 9 30.07 1018 10 16 N/A
6:15 pm 18:15 Clear 64 17.6 33 0.5 32 32 S 7 11 30.09 1019 10 16 N/A
6:35 pm 18:35 Clear 55 12.5 32 -0.1 42 42 N N/A 30.14 1021 7 11 N/A
6:55 pm 18:55 Clear 55 12.5 32 0.1 43 43 N N/A 30.14 1021 7 11 N/A
7:15 pm 19:15 Clear 54 12.4 32 -0.2 42 42 SSW 3 6 30.14 1021 10 16 N/A
7:35 pm 19:35 Clear 53 11.8 32 undefined 45 45 N N/A 30.15 1021 10 16 N/A
7:55 pm 19:55 Clear 53 11.7 32 0.1 45 45 SW 3 6 30.15 1021 10 16 N/A
8:15 pm 20:15 Clear 51 10.6 32 undefined 48 48 SW 5 7 30.16 1021 10 16 N/A
8:35 pm 20:35 Clear 57 13.9 33 0.6 41 41 SW 6 9 30.12 1020 10 16 N/A
8:55 pm 20:55 Clear 58 14.2 33 0.5 39 39 SSW 6 9 30.12 1020 10 16 N/A
9:15 pm 21:15 Clear 54 12.2 32 0.2 44 44 SSW 5 7 30.12 1020 10 16 N/A
9:35 pm 21:35 Clear 53 11.8 33 0.4 46 46 SSW 6 9 30.12 1020 10 16 N/A
9:55 pm 21:55 Clear 51 10.3 32 0.2 50 50 N N/A 30.13 1020 10 16 N/A
10:15 pm 22:15 Clear 50 10.2 32 0.2 50 50 S 5 7 30.13 1020 10 16 N/A
10:35 pm 22:35 Clear 48 9.1 32 0.1 54 54 S 3 6 30.14 1021 10 16 N/A
10:55 pm 22:55 Clear 49 9.2 33 0.3 54 54 SSW 5 7 30.13 1020 10 16 N/A
11:15 pm 23:15 Clear 48 9 33 0.4 55 55 S 5 7 30.13 1020 10 16 N/A
11:35 pm 23:35 Clear 51 10.4 33 0.7 51 51 SSW 7 11 30.12 1020 10 16 N/A
11:55 pm 23:55 Clear 51 10.5 33 0.7 51 51 SSW 7 11 30.12 1020 10 16 N/A

Powered by AerisWeather